Simultaneous Nadir Overpasses (SNOs) Predictions

Prediction of SNOs between GOES-17 and AQUA Satellite Orbit:

Table of predicted SNOs for the next 14.0 days since TLE Epoch: 10/31/2025
Index Date Time (GOES-17) GOES-17 Lat,Lon AQUA Lat,Lon Distance(km) Time Diff (sec)
1 11/01/2025 08:47:00 -0.05, -89.50 -0.47, -87.46 231.69 80
2 11/01/2025 21:08:47 0.02, -89.49 -0.56, -92.07 294.11 80
3 11/03/2025 20:45:08 0.04, -89.50 0.56, -86.93 291.73 80
4 11/04/2025 09:06:47 -0.00, -89.52 0.42, -91.52 227.24 80
5 11/06/2025 08:43:07 -0.02, -89.53 -0.70, -86.38 358.38 80
6 11/06/2025 21:04:53 -0.02, -89.51 -0.36, -90.98 167.66 80
7 11/08/2025 20:41:13 0.00, -89.52 0.82, -85.84 418.81 80
8 11/09/2025 09:02:51 0.04, -89.54 0.20, -90.42 99.51 80
9 11/11/2025 08:39:09 0.01, -89.55 -0.91, -85.27 487.40 80
10 11/11/2025 21:00:54 -0.05, -89.53 -0.10, -89.88 38.56 80
11 11/14/2025 08:56:09 0.05, -89.59 -0.02, -89.30 33.16 80
